Regional Weather Roundup
Issued by NWS

Home | Current Version | Previous Version | Text Only | Print | Product List | Glossary Off
Versions: 1 2 3 4 5 6 7 8 9 10 11 12 13 14 15 16 17 18 19 20 21 22 23 24 25 26 27 28 29 30 31 32 33 34 35 36 37 38 39 40 41 42 43 44 45 46 47 48 49 50

000
ASUS45 KCYS 241410
RWRWY

WYOMING REGIONAL WEATHER ROUNDUP
NATIONAL WEATHER SERVICE CHEYENNE WY
700 AM MST SAT JAN 24 2015

NOTE:  "FAIR" INDICATES FEW OR NO CLOUDS BELOW 12,000 FEET
WITH NO SIGNIFICANT WEATHER AND/OR OBSTRUCTIONS TO VISIBILITY.

WYZ001-241500-
YELLOWSTONE NATIONAL PARK

CITY           SKY/WX    TMP DP  RH WIND       PRES   REMARKS
LK YELLOWSTONE   N/A     13  10  88 CALM      30.35R
W YELLOWSTONE  NOT AVBL

$$
WYZ002>013-054>058-071-098>099-241500-
NORTHERN WYOMING

CITY           SKY/WX    TMP DP  RH WIND       PRES   REMARKS
JACKSON        CLOUDY    12  10  92 CALM      30.42F
CODY           CLOUDY    46  23  39 W22G31    30.07F
GREYBULL       CLOUDY    18  14  84 SE3       30.14F
WORLAND        MOCLDY    19  16  88 SW3       30.14R
SHERIDAN       CLOUDY    39  27  62 SE8       29.95F WCI  33
BUFFALO        LGT RAIN  45  34  65 NW17G28   30.00R
GILLETTE       MOCLDY    42  22  44 W10       29.94R
HULETT           N/A    N/A N/A N/A MISG        N/A
NEWCASTLE      CLOUDY    30  23  74 CALM      29.96F

$$
WYZ014>020-022>026-101>103-241500-
CENTRAL WYOMING

CITY           SKY/WX    TMP DP  RH WIND       PRES   REMARKS
BIG PINEY      FAIR      11   6  81 W5        30.31S WCI   3
PINEDALE       FAIR       9   5  85 E10       30.30R WCI  -6
DUBOIS         CLOUDY    32  21  64 NW8       30.24S WCI  25
LANDER         FAIR      24  16  71 E10       30.13R WCI  14
RIVERTON       FAIR      17  14  88 NE5       30.15R WCI  10
CASPER         CLOUDY    33  18  53 SW28G40   30.08F WCI  20
DOUGLAS        MOCLDY    40  18  41 W17G23    30.00F WCI  31

$$
WYZ021-027>030-104>119-241500-
SOUTHERN WYOMING

CITY           SKY/WX    TMP DP  RH WIND       PRES   REMARKS
EVANSTON       FAIR      18  14  84 SW14      30.39R WCI   4
FORT BRIDGER   FAIR      24  18  80 W15       30.40R WCI  11
ROCK SPRINGS   FAIR      24  16  71 W15       30.34R WCI  11
DIXON          FAIR      13   8  82 CALM      30.40R
RAWLINS        FAIR      26  16  65 SW24G33   30.22F WCI  11
SARATOGA       FAIR      23  12  63 CALM      30.28R
LARAMIE        FAIR      25  12  58 SW20      30.14R WCI  11
CHEYENNE       FAIR      38  10  31 NW21G36   30.06R WCI  28
TORRINGTON     MOCLDY    40  19  43 W22G33    29.98F WCI  30
PINE BLUFFS    FAIR      23  18  80 SW3       30.04R

$$


USA.gov is the U.S. government's official web portal to all federal, state and local government web resources and services.